Tracking 19795 objects as of 18-Jul-2019
HD Live streaming from Space Station
objects crossing your sky now

TANSUO 1

Track TANSUO 1 now!
10-day predictions
TANSUO 1 is classified as:


NORAD ID: 28220
Int'l Code: 2004-012A
Perigee: 568.3 km
Apogee: 580.7 km
Inclination: 97.8 °
Period: 96.0 minutes
Semi major axis: 6945 km
RCS: 1.6951 m2 (large)
Launch date: April 18, 2004
Source: People's Republic of China (PRC)
Launch site: Xichang Space Center, China (XSC)
aabbcc
Your satellite tracking list
Your tracking list is empty




NASA's NSSDC Master Catalog

Two Line Element Set (TLE):
1 28220U 04012A   19199.00111929 -.00000587  00000-0 -42460-4 0  9995
2 28220  97.8028 161.3167 0008970  67.4085 292.8086 14.99853277830448
Source of the keplerian elements: AFSPC